Date_and_time,latitude,longitude,wind_speed,RelWindDirFrom,WindDirFrom,air_pressure,air_temperature,relative_humidity,Temp,platform_speed_wrt_ground,air_pressure_at_mean_sea_level,platform_orientation
2018-11-21 23:40,50.6304566666667,-96.980765,15.4,18.2,127,998.26,-10.4,67,1.10,0.0,1027.57,345.5
2018-11-21 23:50,50.6304566666667,-96.980765,15.8,19.9,124,998.15,-10.3,68,1.11,0.0,1027.44,345.5
2018-11-22 00:00,50.6304366666667,-96.9807766666667,16.1,19.6,125,997.83,-10.3,68,1.11,0.0,1027.11,18.9
2018-11-22 00:00,50.6304366666667,-96.9807766666667,18.6,18.8,123,997.69,-10.2,71,1.11,0.0,1026.96,142.0
2018-11-22 00:10,50.6304483333333,-96.9807816666667,16.4,19.9,126,997.66,-10.3,67,1.10,0.0,1026.93,142.0
2018-11-22 00:20,50.6304483333333,-96.9807833333333,15.7,19.6,126,997.57,-10.2,68,1.10,0.0,1026.83,142.0
2018-11-22 00:30,50.6304483333333,-96.98078,16.2,20.4,128,997.41,-10.4,67,1.10,0.0,1026.67,142.0
2018-11-22 00:40,50.630455,-96.9807983333333,15.2,20.5,132,997.34,-10.6,66,1.10,0.0,1026.61,142.0
2018-11-22 00:50,50.6304566666667,-96.98078,15.1,20.0,132,997.33,-10.5,67,1.09,0.0,1026.60,142.0
2018-11-22 01:00,50.6304566666667,-96.9807833333333,15.4,18.5,129,997.23,-10.3,68,1.09,0.0,1026.48,299.2
2018-11-22 01:10,50.6304533333333,-96.9807766666667,15.0,19.6,129,997.20,-10.3,68,1.09,0.0,1026.44,299.2
2018-11-22 01:20,50.6304516666667,-96.9807766666667,17.1,20.9,135,997.00,-10.6,65,1.10,0.0,1026.26,299.2
2018-11-22 01:30,50.63045,-96.9807733333333,17.3,20.4,136,996.89,-10.7,64,1.09,0.0,1026.14,299.2
2018-11-22 01:40,50.6304483333333,-96.9807716666667,17.2,20.4,137,996.82,-10.7,65,1.10,0.0,1026.07,299.2
2018-11-22 01:50,50.63045,-96.980755,17.1,20.6,140,996.76,-10.7,66,1.10,0.0,1026.00,299.2
2018-11-22 02:00,50.6304466666667,-96.9807566666667,16.8,20.9,139,996.61,-10.6,66,1.10,0.0,1025.86,36.6
2018-11-22 02:10,50.6304633333333,-96.98077,16.1,19.8,136,996.49,-10.5,67,1.10,0.0,1025.72,36.6
2018-11-22 02:20,50.6304616666667,-96.98077,18.0,21.2,138,996.32,-10.6,67,1.10,0.0,1025.56,36.6
2018-11-22 02:30,50.6304583333333,-96.9807683333333,16.9,21.5,137,996.29,-10.5,68,1.10,0.0,1025.53,36.6
2018-11-22 02:40,50.6304566666667,-96.9807683333333,18.0,22.7,141,996.11,-10.6,68,1.10,0.0,1025.34,36.6
2018-11-22 02:50,50.6304566666667,-96.9807666666667,18.9,21.9,139,995.98,-10.6,67,1.10,0.0,1025.21,36.6
2018-11-22 03:00,50.6304566666667,-96.9807683333333,19.1,22.0,137,995.92,-10.6,67,1.11,0.0,1025.14,23.5
2018-11-22 03:10,50.6304566666667,-96.9807666666667,19.4,22.6,142,995.75,-10.5,68,1.11,0.0,1024.98,23.5
2018-11-22 03:20,50.6304566666667,-96.9807666666667,18.5,21.7,144,995.87,-10.5,68,1.11,0.0,1025.11,23.5
2018-11-22 03:30,50.6304483333333,-96.9807833333333,17.8,21.3,143,995.91,-10.4,68,1.12,0.0,1025.14,23.5
2018-11-22 03:40,50.6304483333333,-96.9807683333333,18.5,21.4,140,995.78,-10.4,68,1.12,0.0,1025.00,23.5
2018-11-22 03:50,50.6304483333333,-96.98077,18.8,21.4,142,995.53,-10.4,67,1.12,0.0,1024.74,23.5
2018-11-22 04:00,50.6304466666667,-96.98077,19.1,22.1,142,995.36,-10.3,67,1.12,0.0,1024.57,111.5
2018-11-22 04:10,50.6304483333333,-96.9807716666667,17.9,22.1,139,995.35,-10.2,69,1.12,0.0,1024.55,111.5
2018-11-22 04:20,50.6304433333333,-96.980735,18.1,20.7,139,995.39,-10.2,68,1.12,0.0,1024.59,111.5
2018-11-22 04:30,50.6304516666667,-96.980765,18.1,21.2,144,995.36,-10.1,68,1.12,0.0,1024.56,111.5
2018-11-22 04:40,50.6304583333333,-96.9807783333333,18.7,21.7,140,995.17,-10.0,69,1.12,0.0,1024.35,111.5
2018-11-22 04:50,50.630455,-96.9807916666667,18.6,22.1,139,994.92,-9.9,68,1.12,0.0,1024.09,111.5
2018-11-22 05:00,50.6304516666667,-96.9807633333333,18.8,22.4,143,994.75,-9.9,69,1.12,0.0,1023.92,347.4
2018-11-22 05:10,50.63045,-96.98076,19.6,22.0,141,994.54,-9.8,69,1.12,0.0,1023.69,347.4
2018-11-22 05:20,50.6304516666667,-96.980765,20.4,22.7,140,994.27,-9.8,68,1.12,0.0,1023.40,347.4
2018-11-22 05:30,50.6304516666667,-96.980765,19.6,22.4,141,994.08,-9.7,69,1.12,0.0,1023.20,347.4
2018-11-22 05:40,50.6304533333333,-96.9807666666667,20.1,23.0,143,993.86,-9.6,69,1.12,0.0,1022.98,347.4
2018-11-22 05:50,50.6304533333333,-96.9807683333333,19.1,22.2,142,993.90,-9.5,70,1.12,0.0,1023.00,347.4
2018-11-22 06:00,50.6304516666667,-96.9807666666667,18.6,21.7,142,993.91,-9.4,70,1.12,0.0,1023.00,90.0
2018-11-22 06:10,50.6304483333333,-96.9807583333333,18.9,21.5,141,993.80,-9.4,69,1.12,0.0,1022.88,90.0
2018-11-22 06:20,50.63045,-96.9807666666667,17.8,21.9,144,993.80,-9.2,71,1.12,0.0,1022.87,90.0
2018-11-22 06:30,50.6304483333333,-96.9807633333333,19.4,23.2,145,993.76,-9.1,70,1.12,0.0,1022.82,90.0
2018-11-22 06:40,50.6304483333333,-96.9807666666667,19.2,23.0,148,993.72,-9.0,71,1.12,0.0,1022.77,90.0
2018-11-22 06:50,50.6304466666667,-96.9807683333333,18.8,23.0,147,993.62,-9.0,72,1.11,0.0,1022.66,90.0
2018-11-22 07:00,50.6304416666667,-96.9807833333333,19.0,23.7,146,993.48,-9.0,73,1.11,0.0,1022.51,246.4
2018-11-22 07:10,50.63044,-96.9807866666667,18.8,22.0,146,993.34,-9.0,74,1.11,0.0,1022.37,246.4
2018-11-22 07:20,50.6304433333333,-96.980785,19.8,23.6,146,992.99,-8.9,75,1.11,0.0,1022.00,246.4
2018-11-22 07:30,50.6304466666667,-96.9807816666667,19.1,22.8,145,992.95,-8.9,75,1.09,0.0,1021.95,246.4
2018-11-22 07:40,50.6304483333333,-96.9807783333333,19.0,23.2,145,992.78,-8.8,75,1.09,0.0,1021.77,246.4
2018-11-22 07:50,50.63045,-96.9807766666667,19.3,23.6,147,992.48,-8.8,76,1.09,0.0,1021.45,246.4
2018-11-22 08:00,50.6304516666667,-96.980775,18.8,22.6,145,992.26,-8.7,78,1.09,0.0,1021.22,270.0
2018-11-22 08:10,50.6304516666667,-96.9807766666667,19.6,23.9,144,992.11,-8.7,80,1.09,0.0,1021.05,270.0
2018-11-22 08:20,50.63045,-96.9807766666667,19.6,23.7,144,991.87,-8.6,81,1.09,0.0,1020.80,270.0
2018-11-22 08:30,50.6304516666667,-96.9807766666667,20.5,25.1,142,991.62,-8.6,82,1.09,0.0,1020.54,270.0
2018-11-22 08:40,50.630455,-96.9807833333333,21.3,24.7,142,991.45,-8.5,83,1.09,0.0,1020.36,270.0
2018-11-22 08:50,50.6304383333333,-96.9807716666667,20.7,24.3,140,991.34,-8.4,84,1.08,0.0,1020.23,270.0
2018-11-22 09:00,50.63044,-96.9807633333333,22.1,25.4,142,991.10,-8.3,86,1.08,0.0,1019.98,360.0
2018-11-22 09:10,50.6304383333333,-96.98077,22.7,26.4,141,990.83,-8.3,89,1.08,0.0,1019.70,360.0
2018-11-22 09:20,50.6304366666667,-96.9807716666667,22.6,27.3,139,990.59,-8.2,90,1.09,0.0,1019.44,360.0
2018-11-22 09:30,50.6304383333333,-96.9807716666667,22.3,26.2,140,990.43,-8.2,91,1.09,0.0,1019.28,360.0
2018-11-22 09:40,50.6304383333333,-96.9807716666667,22.0,26.8,139,990.28,-8.1,92,1.09,0.0,1019.11,360.0
2018-11-22 09:50,50.63044,-96.9807733333333,22.4,26.7,139,990.01,-8.1,92,1.09,0.0,1018.83,360.0
2018-11-22 10:00,50.6304416666667,-96.980775,21.0,25.6,140,989.90,-8.0,93,1.09,0.0,1018.72,90.0
2018-11-22 10:10,50.6304416666667,-96.980775,22.6,26.4,141,989.71,-7.9,93,1.09,0.0,1018.51,90.0
2018-11-22 10:20,50.630435,-96.98079,22.2,26.2,143,989.52,-7.9,94,1.09,0.0,1018.31,90.0
2018-11-22 10:30,50.6304333333333,-96.98078,22.4,26.4,141,989.38,-7.8,94,1.09,0.0,1018.16,90.0
2018-11-22 10:40,50.6304383333333,-96.9807816666667,22.0,25.2,143,989.29,-7.8,94,1.09,0.0,1018.05,90.0
2018-11-22 10:50,50.63044,-96.9807816666667,22.1,25.4,142,989.15,-7.7,93,1.09,0.0,1017.91,90.0
2018-11-22 11:00,50.63044,-96.98078,23.0,26.6,141,988.90,-7.6,93,1.09,0.0,1017.64,216.6
2018-11-22 11:10,50.6304433333333,-96.9807783333333,22.5,26.4,141,988.81,-7.5,93,1.09,0.0,1017.54,216.6
2018-11-22 11:20,50.6304466666667,-96.9807783333333,22.7,25.8,142,988.64,-7.4,93,1.09,0.0,1017.35,216.6
2018-11-22 11:30,50.630445,-96.9807783333333,22.5,25.7,140,988.28,-7.3,94,1.09,0.0,1016.98,216.6
2018-11-22 11:40,50.630445,-96.9807833333333,23.0,26.6,141,987.98,-7.3,94,1.09,0.0,1016.67,216.6
2018-11-22 11:50,50.6304433333333,-96.980785,22.9,26.2,143,987.75,-7.2,95,1.09,0.0,1016.41,216.6
2018-11-22 12:00,50.630445,-96.980785,23.2,28.3,145,987.56,-7.1,95,1.09,0.0,1016.21,270.0
2018-11-22 12:10,50.6304433333333,-96.9807816666667,22.2,27.5,146,987.49,-7.0,96,1.08,0.0,1016.13,270.0
2018-11-22 12:20,50.630445,-96.9807833333333,22.6,28.6,146,987.25,-6.9,97,1.08,0.0,1015.88,270.0
2018-11-22 12:30,50.630465,-96.980805,23.0,27.4,146,987.02,-6.9,97,1.08,0.0,1015.63,270.0
2018-11-22 12:40,50.6304416666667,-96.9807833333333,21.8,27.1,147,987.00,-6.8,98,1.08,0.0,1015.61,270.0
2018-11-22 12:50,50.63044,-96.9807766666667,21.2,26.8,149,987.03,-6.8,99,1.09,0.0,1015.63,270.0
2018-11-22 13:00,50.630445,-96.98079,20.2,24.8,147,986.99,-6.7,99,1.09,0.0,1015.58,270.0
2018-11-22 13:10,50.6304483333333,-96.98078,20.0,25.4,147,986.86,-6.6,99,1.09,0.0,1015.44,270.0
2018-11-22 13:20,50.6304483333333,-96.98078,19.5,24.9,151,986.76,-6.6,99,1.09,0.0,1015.33,270.0
2018-11-22 13:30,50.6304466666667,-96.9807783333333,18.7,24.7,149,986.63,-6.5,99,1.09,0.0,1015.18,270.0
2018-11-22 13:40,50.6304483333333,-96.9807883333333,18.9,24.3,149,986.37,-6.4,99,1.09,0.0,1014.91,270.0
2018-11-22 13:50,50.6304383333333,-96.980785,17.8,22.7,149,986.32,-6.3,99,1.08,0.0,1014.84,270.0
2018-11-22 14:00,50.63044,-96.9807816666667,19.1,23.6,148,986.08,-6.2,99,1.08,0.0,1014.59,0.0
2018-11-22 14:10,50.6304416666667,-96.9807766666667,19.3,24.4,150,985.79,-6.2,99,1.08,0.0,1014.29,0.0
2018-11-22 14:20,50.6304433333333,-96.9807716666667,17.8,24.3,152,985.61,-6.0,99,1.08,0.0,1014.09,0.0
2018-11-22 14:30,50.6304433333333,-96.9807716666667,18.0,23.8,150,985.50,-5.9,99,1.08,0.0,1013.97,0.0
2018-11-22 14:40,50.630445,-96.9807716666667,16.6,20.6,148,985.47,-5.8,99,1.08,0.0,1013.94,0.0
2018-11-22 14:50,50.630445,-96.98077,16.6,21.2,147,985.36,-5.7,99,1.08,0.0,1013.81,0.0
2018-11-22 15:00,50.6304466666667,-96.9807716666667,19.0,23.2,156,985.28,-5.4,99,1.08,0.0,1013.70,54.7
2018-11-22 15:10,50.6304466666667,-96.9807733333333,19.4,24.0,154,985.01,-5.3,99,1.08,0.0,1013.42,54.7
2018-11-22 15:20,50.6304233333333,-96.9807816666667,19.7,24.4,155,984.85,-5.2,99,1.08,0.0,1013.24,54.7
2018-11-22 15:30,50.6304416666667,-96.9807783333333,19.4,23.1,156,984.79,-5.1,99,1.09,0.0,1013.17,54.7
2018-11-22 15:40,50.6304433333333,-96.98078,19.9,24.9,158,984.64,-5.1,99,1.09,0.0,1013.01,54.7
2018-11-22 15:50,50.630445,-96.9807733333333,20.1,24.0,156,984.34,-5.0,99,1.09,0.0,1012.70,54.7
2018-11-22 16:00,50.6304583333333,-96.9807783333333,19.1,23.8,156,984.05,-5.0,99,1.09,0.0,1012.39,360.0
2018-11-22 16:10,50.6304716666667,-96.9808316666667,18.9,24.0,155,983.84,-4.9,99,1.09,0.0,1012.16,360.0
2018-11-22 16:20,50.63046,-96.9807866666667,19.3,22.9,156,983.72,-4.8,99,1.10,0.0,1012.03,360.0
2018-11-22 16:30,50.6304566666667,-96.98078,19.6,23.7,157,983.42,-4.7,99,1.10,0.0,1011.71,360.0
2018-11-22 16:40,50.6304566666667,-96.980775,19.8,24.0,161,983.30,-4.5,99,1.11,0.0,1011.57,360.0
2018-11-22 16:50,50.6304583333333,-96.9807766666667,19.5,23.9,160,983.12,-4.4,99,1.11,0.0,1011.36,360.0
2018-11-22 17:00,50.63046,-96.9807516666667,19.4,24.0,161,982.91,-4.3,99,1.11,0.0,1011.13,54.2
2018-11-22 17:10,50.6304616666667,-96.9807616666667,19.5,26.3,161,982.77,-4.2,99,1.11,0.0,1010.97,54.2
2018-11-22 17:20,50.6304566666667,-96.9807766666667,19.9,23.8,160,982.58,-4.1,99,1.12,0.0,1010.77,54.2
2018-11-22 17:30,50.6304533333333,-96.9807733333333,19.2,23.5,158,982.26,-4.1,99,1.12,0.0,1010.45,54.2
2018-11-22 17:40,50.6304516666667,-96.98077,19.6,24.5,158,982.06,-4.0,99,1.12,0.0,1010.23,54.2
2018-11-22 17:50,50.6304516666667,-96.98077,17.2,21.1,156,982.07,-3.9,99,1.13,0.0,1010.24,54.2
2018-11-22 18:00,50.6304583333333,-96.9807666666667,19.0,24.3,156,981.81,-3.9,99,1.13,0.0,1009.97,14.5
2018-11-22 18:10,50.6304466666667,-96.9807766666667,18.3,22.3,157,981.78,-3.8,99,1.13,0.0,1009.92,14.5
2018-11-22 18:20,50.6304466666667,-96.9807766666667,18.7,22.3,158,981.66,-3.7,99,1.13,0.0,1009.79,14.5
2018-11-22 18:30,50.6304483333333,-96.9807766666667,17.4,20.7,159,981.59,-3.6,99,1.13,0.0,1009.71,14.5
2018-11-22 18:40,50.6304483333333,-96.9807766666667,16.2,21.2,154,981.19,-3.6,99,1.13,0.0,1009.28,14.5
2018-11-22 18:50,50.6304333333333,-96.98076,16.9,21.6,153,981.03,-3.6,99,1.14,0.0,1009.11,14.5
2018-11-22 19:00,50.630445,-96.980775,17.7,21.5,155,980.92,-3.6,99,1.14,0.0,1009.00,176.8
2018-11-22 19:10,50.6304516666667,-96.9807816666667,17.6,24.2,156,980.76,-3.4,99,1.14,0.0,1008.82,176.8
2018-11-22 19:20,50.6304516666667,-96.980785,18.3,22.6,159,980.65,-3.2,99,1.15,0.0,1008.68,176.8
2018-11-22 19:30,50.6304533333333,-96.9807816666667,19.6,25.7,162,980.54,-3.0,99,1.15,0.0,1008.56,176.8
2018-11-22 19:40,50.630455,-96.9807816666667,18.2,22.8,158,980.30,-2.9,99,1.16,0.0,1008.31,176.8
2018-11-22 19:50,50.6304483333333,-96.9807733333333,18.2,21.6,160,980.16,-2.9,99,1.16,0.0,1008.16,176.8
2018-11-22 20:00,50.6304466666667,-96.980775,16.4,19.8,158,979.92,-2.8,99,1.15,0.0,1007.91,229.4
2018-11-22 20:10,50.63045,-96.9807783333333,17.9,23.6,155,979.56,-2.8,99,1.15,0.0,1007.53,229.4
2018-11-22 20:20,50.6304516666667,-96.9807766666667,18.8,23.0,158,979.34,-2.7,99,1.16,0.0,1007.29,229.4
2018-11-22 20:30,50.6304516666667,-96.980775,20.1,24.4,156,978.95,-2.7,99,1.16,0.0,1006.89,229.4
2018-11-22 20:40,50.63045,-96.9807733333333,21.2,26.5,155,978.54,-2.6,99,1.16,0.0,1006.47,229.4
2018-11-22 20:50,50.63043,-96.9807633333333,21.0,24.8,159,978.66,-2.5,99,1.17,0.0,1006.59,229.4
2018-11-22 21:00,50.6304516666667,-96.9807616666667,18.7,24.0,163,978.99,-2.4,99,1.17,0.0,1006.90,131.7
2018-11-22 21:10,50.63044,-96.9807633333333,16.8,22.1,162,978.95,-2.3,99,1.17,0.0,1006.85,131.7
2018-11-22 21:20,50.6304383333333,-96.9807616666667,17.3,22.8,164,978.92,-2.2,99,1.17,0.0,1006.80,131.7
2018-11-22 21:30,50.6304416666667,-96.9807633333333,17.5,23.3,168,979.02,-2.0,99,1.17,0.0,1006.89,131.7
2018-11-22 21:40,50.63044,-96.9807633333333,18.8,24.5,168,978.84,-2.0,99,1.17,0.0,1006.70,131.7
2018-11-22 21:50,50.63044,-96.98078,16.8,21.4,169,978.68,-2.0,99,1.17,0.0,1006.53,131.7
2018-11-22 22:00,50.6304416666667,-96.9807766666667,16.4,23.4,167,978.45,-2.0,99,1.16,0.0,1006.29,0.0
2018-11-22 22:10,50.6304416666667,-96.980775,19.2,24.8,165,978.34,-2.0,99,1.16,0.0,1006.17,0.0
2018-11-22 22:20,50.6304416666667,-96.980775,16.5,23.3,168,978.34,-2.0,99,1.17,0.0,1006.18,0.0
2018-11-22 22:30,50.6304383333333,-96.9807716666667,21.1,26.6,164,978.14,-2.1,99,1.17,0.0,1005.98,0.0
2018-11-22 22:40,50.6304366666667,-96.9807733333333,20.1,25.1,165,977.93,-2.2,99,1.18,0.0,1005.75,0.0
2018-11-22 22:50,50.6304333333333,-96.9807683333333,20.2,27.2,163,977.77,-2.2,100,1.17,0.0,1005.58,0.0
2018-11-22 23:00,50.630435,-96.98078,21.7,28.0,166,977.63,-2.2,100,1.17,0.0,1005.43,216.6
2018-11-22 23:10,50.6304366666667,-96.9807833333333,18.0,22.5,163,977.48,-2.3,100,1.14,0.0,1005.28,216.6
2018-11-22 23:20,50.6304383333333,-96.9807833333333,20.6,24.4,160,977.04,-2.4,100,1.15,0.0,1004.82,216.6
2018-11-22 23:30,50.6304416666667,-96.9807833333333,19.6,25.9,164,977.10,-2.3,100,1.16,0.0,1004.89,216.6
2018-11-22 23:40,50.6304416666667,-96.980785,16.2,20.4,169,977.32,-2.3,100,1.16,0.0,1005.11,216.6
2018-11-22 23:50,50.6304433333333,-96.980785,16.8,25.9,167,977.22,-2.3,100,1.16,0.0,1005.01,216.6
